[[{"header":{"parameterUnit":"m.s-1","parameterCategory":1,"la1":30.2991,"la2":30.254,"lo1":-89.0895,"lo2":-89.0444,"dy":0.0017,"dx":0.0017,"nx":28,"ny":28,"refTime":"2024-10-05T09:00:00:Z","depth":0,"parameterNumber":2,"parameterNumberName":"U-component_of_WINDS"},"data":[0,0,0,0,0,0,0,0,0,0,0,0,0,0,0,0,0,0,0,0,0,0,0,0,0,0,0,0,0,0,0,0,0,0,0,0,0,0,0,0,0,0,0,0,0,0,0,0,0,0,0,0,0,0,0,0,0,0,-3.954,-3.954,0,-3.9577,-3.9578,-3.9578,-3.9466,-3.9463,-3.9459,-3.9456,-3.9498,-3.9502,-3.9506,0,0,0,0,0,0,0,0,0,0,0,0,0,-3.9376,-3.938,-3.954,-3.954,-3.9541,-3.9577,-3.9578,-3.9578,-3.9467,-3.9463,-3.9459,-3.9455,-3.9497,-3.9502,-3.9507,0,0,0,0,0,0,0,0,0,0,0,0,0,-3.9434,-3.9381,-3.954,-3.949,-3.9485,-3.9577,-3.9578,-3.9578,-3.9468,-3.9463,-3.9457,-3.9453,-3.9495,-3.9501,-3.9507,-3.965,0,0,-3.9527,-3.953,0,0,0,0,0,0,0,0,-3.9431,-3.944,-3.9497,-3.9493,-3.9489,-3.9512,-3.9535,-3.9603,-3.9469,-3.9475,-3.9456,-3.945,-3.9507,-3.9512,-3.953,-3.9652,-3.9654,-3.9528,-3.9532,-3.9535,-3.9536,0,0,0,0,0,0,0,-3.9427,-3.9438,-3.9555,-3.9497,-3.9493,-3.9467,-3.9469,-3.9547,-3.9519,-3.9474,-3.9466,-3.9471,-3.9504,-3.9525,-3.9531,-3.9655,-3.9528,-3.9533,-3.9537,-3.954,-3.9899,-3.9904,0,0,0,0,0,0,-3.9429,-3.9435,-3.9553,-3.9556,-3.9446,-3.9474,-3.9476,-3.951,-3.9518,-3.9514,-3.9476,-3.9466,-3.9516,-3.9523,-3.9532,-3.9702,-3.9534,-3.9541,-3.9544,-3.9893,-3.99,-3.9906,0,0,0,0,0,0,-3.9426,-3.9441,-3.9552,-3.9494,-3.9506,-3.9482,-3.952,-3.9513,-3.9534,-3.952,-3.9514,-3.9502,-3.9512,-3.9523,-3.9622,-3.9702,-3.9543,-3.9549,-3.9886,-3.9895,-3.9903,-4.0042,0,0,0,0,0,0,-3.9422,-3.944,-3.9493,-3.9495,-3.9509,-3.9641,-3.9525,-3.9518,-3.9545,-3.9532,-3.9543,-3.954,-3.9509,-3.9613,-3.9629,-3.9708,-3.9554,-3.9879,-3.989,-3.99,-4.003,-4.0054,-4.0075,0,0,0,0,0,-3.9416,-3.9531,-3.9497,-3.9511,-3.9575,-3.9646,-3.9654,-3.9615,-3.9551,-3.9606,-3.9597,-3.9539,-3.969,-3.9624,-3.9641,-3.9723,-3.9874,-3.9887,-3.99,-4.002,-4.0049,-4.0074,0,0,0,0,0,0,-3.954,-3.953,-3.9492,-3.961,-3.963,-3.9627,-3.9693,-3.9647,-3.9685,-3.9672,-3.9624,-3.9627,-3.9737,-3.9739,-3.9666,-3.9863,-3.9771,-3.9788,-3.9858,-3.9885,-3.9907,-3.9905,-3.956,0,0,0,0,0,-3.958,-3.9638,-3.9627,-3.9733,-3.9744,-3.9718,-3.9747,-3.9716,-3.9734,-3.9742,-3.974,-3.9762,-3.9814,-3.9849,-3.9896,-4.0029,-4.0032,-4.0094,-4.0117,-4.0135,-4.0151,-4.0224,-4.0253,-3.9948,-3.9948,-3.9948,0,0,-3.9666,-3.9668,-3.9707,-3.9757,-3.9768,-3.9831,-3.9725,-3.9795,-3.9841,-3.9753,-3.9847,-3.9847,-3.9867,-3.9985,-4.0037,-3.9991,-4.0235,-4.0151,-4.0166,-4.0172,-4.024,-4.0269,-4.0295,-3.9957,-3.9955,-3.9954,0,0,-3.9853,-3.9859,-3.9949,-3.9963,-3.9981,-3.9963,-3.9985,-3.9989,-3.9985,-4.0079,-4.0015,-4.0069,-4.016,-4.0178,-4.0199,-4.0395,-4.0345,-4.0412,-4.0529,-4.0601,-4.0625,-4.0646,-4.0719,-4.0745,-4.0427,-4.0427,-4.0427,0,-3.9957,-4.0047,-4.0002,-4.0076,-4.0102,-4.0024,-4.0116,-4.0131,-4.0165,-4.0185,-4.0132,-4.0245,-4.0253,-4.0376,-4.0424,-4.0442,-4.0468,-4.0411,-4.0625,-4.0645,-4.0665,-4.0733,-4.0761,-4.0435,-4.0435,-4.0434,-4.0433,0,-4.0176,-4.0239,-4.031,-4.0343,-4.0376,-4.0459,-4.0428,-4.0467,-4.0434,-4.0422,-4.052,-4.0526,-4.0575,-4.0601,-4.0569,-4.072,-4.0691,-4.0632,-4.054,-4.0703,-4.0767,-4.0792,-4.0447,-4.0444,-4.0442,-4.044,0,0,-4.0442,-4.045,-4.0478,-4.0493,-4.0508,-4.0557,-4.0637,-4.0683,-4.0719,-4.0745,-4.0813,-4.0892,-4.0838,-4.0862,-4.0831,-4.0894,-4.1053,-4.0828,-4.0828,-4.0872,-4.1223,-4.1269,-4.13,-4.1018,-4.1023,-4.1027,-4.1222,0,-4.0629,-4.0766,-4.0728,-4.0866,-4.0925,-4.0853,-4.0923,-4.0941,-4.0932,-4.0983,-4.0973,-4.1031,-4.0954,-4.0969,-4.1028,-4.1021,-4.1123,-4.1006,-4.1084,-4.1087,-4.1083,-4.1333,-4.1381,-4.1565,-4.1247,-4.1251,-4.1254,0,-4.0865,-4.09,-4.1044,-4.1051,-4.1074,-4.1138,-4.1179,-4.1227,-4.1247,-4.1236,-4.1264,-4.122,-4.1302,-4.1207,-4.132,-4.1242,-4.1271,-4.1273,-4.1279,-4.1287,-4.1182,-4.135,-4.1622,-4.1651,-4.1292,-4.1289,-4.1286,0,-4.1049,-4.1132,-4.1229,-4.1244,-4.1253,-4.1301,-4.1307,-4.1321,-4.1352,-4.1388,-4.1408,-4.1454,-4.1479,-4.1516,-4.1487,-4.1421,-4.1606,-4.1508,-4.1602,-4.1603,-4.1646,-4.1644,-4.193,-4.1661,-4.1661,-4.166,-4.166,0,-4.1263,-4.1354,-4.1312,-4.1372,-4.1473,-4.1429,-4.1531,-4.1529,-4.1543,-4.1603,-4.1542,-4.16,-4.1557,-4.1612,-4.159,-4.1689,-4.17,-4.1695,-4.1689,-4.1702,-4.1703,-4.1723,-4.171,-4.1668,-4.1666,-4.1665,-4.1663,0,-4.1486,-4.146,-4.1562,-4.1563,-4.1566,-4.1641,-4.1642,-4.1699,-4.1685,-4.1762,-4.1778,-4.1758,-4.182,-4.1794,-4.1859,-4.1844,-4.1971,-4.1947,-4.1965,-4.196,-4.2055,-4.2048,-4.2365,-4.2406,-4.2109,-4.2112,-4.2114,0,-4.1625,-4.1694,-4.1702,-4.1738,-4.1748,-4.1806,-4.1837,-4.1798,-4.1833,-4.1862,-4.1916,-4.1972,-4.2015,-4.2117,-4.2109,-4.216,-4.2137,-4.2245,-4.2145,-4.2157,-4.2142,-4.214,-4.2148,-4.2266,-4.227,-4.2272,-4.2275,0,-4.1876,-4.186,-4.1907,-4.1952,-4.1991,-4.2023,-4.2051,-4.2084,-4.2045,-4.2089,-4.215,-4.2184,-4.2251,-4.2308,-4.2353,-4.2361,-4.2314,-4.2306,-4.2331,-4.2346,-4.2355,-4.2355,-4.2023,-4.2299,-4.2297,-4.2295,-4.2294,-4.2293,-4.2063,-4.2122,-4.2137,-4.2193,-4.2209,-4.2237,-4.2291,-4.2284,-4.2335,-4.2386,-4.2359,-4.2432,-4.2452,-4.2507,-4.2522,-4.258,-4.2537,-4.2573,-4.2582,-4.2592,-4.2606,-4.2344,-4.2587,-4.2586,-4.2586,-4.2585,-4.2585,0,-4.2313,-4.232,-4.2371,-4.2412,-4.2456,-4.2405,-4.2433,-4.2474,-4.2539,-4.256,-4.2604,-4.2677,-4.2733,-4.273,-4.2782,-4.2829,-4.2808,-4.2844,-4.2842,-4.2845,-4.2639,-4.2614,-4.286,-4.286,-4.286,-4.286,-4.286,-4.286,-4.2449,-4.2546,-4.2533,-4.2639,-4.2644,-4.2715,-4.2736,-4.2762,-4.2779,-4.2863,-4.2909,-4.2906,-4.2919,-4.2971,-4.3021,-4.3019,-4.3042,-4.3087,-4.3078,-4.2886,-4.2859,-4.2833,-4.2809,-4.3092,-4.3092,-4.3278,-4.328,-4.3281]},{"header":{"parameterUnit":"m.s-1","parameterCategory":1,"la1":30.2991,"la2":30.254,"lo1":-89.0895,"lo2":-89.0444,"dy":0.0017,"dx":0.0017,"nx":28,"ny":28,"refTime":"2024-10-05T09:00:00:Z","depth":0,"parameterNumber":3,"parameterNumberName":"V-component_of_WINDS"},"data":[0,0,0,0,0,0,0,0,0,0,0,0,0,0,0,0,0,0,0,0,0,0,0,0,0,0,0,0,0,0,0,0,0,0,0,0,0,0,0,0,0,0,0,0,0,0,0,0,0,0,0,0,0,0,0,0,0,0,-4.1447,-4.1447,0,-4.1442,-4.1442,-4.1442,-4.1383,-4.1381,-4.138,-4.1378,-4.1374,-4.1375,-4.1376,0,0,0,0,0,0,0,0,0,0,0,0,0,-4.1406,-4.1407,-4.1447,-4.1447,-4.1447,-4.1442,-4.1442,-4.1442,-4.1383,-4.1381,-4.1379,-4.1378,-4.1373,-4.1375,-4.1376,0,0,0,0,0,0,0,0,0,0,0,0,0,-4.1414,-4.1407,-4.1447,-4.1417,-4.1414,-4.1442,-4.1442,-4.1442,-4.1383,-4.1381,-4.1379,-4.1377,-4.1373,-4.1375,-4.1376,-4.1433,0,0,-4.1382,-4.1383,0,0,0,0,0,0,0,0,-4.1414,-4.1416,-4.1422,-4.1419,-4.1416,-4.1411,-4.1426,-4.1439,-4.1384,-4.1395,-4.1378,-4.1376,-4.1388,-4.1388,-4.1392,-4.1433,-4.1433,-4.1382,-4.1384,-4.1384,-4.1385,0,0,0,0,0,0,0,-4.1413,-4.1416,-4.1445,-4.1422,-4.1418,-4.1404,-4.1402,-4.1428,-4.1404,-4.1394,-4.139,-4.139,-4.1386,-4.1391,-4.1392,-4.1433,-4.1382,-4.1384,-4.1385,-4.1386,-4.1518,-4.152,0,0,0,0,0,0,-4.1417,-4.1416,-4.1445,-4.1445,-4.1409,-4.1406,-4.1405,-4.1415,-4.1404,-4.14,-4.1392,-4.1387,-4.1388,-4.139,-4.1391,-4.1456,-4.1384,-4.1386,-4.1387,-4.1515,-4.1518,-4.1521,0,0,0,0,0,0,-4.1416,-4.142,-4.1446,-4.1429,-4.1431,-4.1409,-4.1421,-4.1416,-4.142,-4.1402,-4.1397,-4.1401,-4.1387,-4.1389,-4.1423,-4.1455,-4.1387,-4.1389,-4.1513,-4.1516,-4.1519,-4.1586,0,0,0,0,0,0,-4.1415,-4.142,-4.1442,-4.143,-4.1432,-4.1477,-4.1423,-4.1417,-4.1424,-4.1418,-4.1409,-4.1406,-4.1385,-4.142,-4.1425,-4.1456,-4.139,-4.151,-4.1514,-4.1518,-4.158,-4.1591,-4.16,0,0,0,0,0,-4.1414,-4.1461,-4.1443,-4.1447,-4.1459,-4.1479,-4.1481,-4.1456,-4.1427,-4.1448,-4.1436,-4.1406,-4.1451,-4.1424,-4.1429,-4.1461,-4.1507,-4.1513,-4.1518,-4.1576,-4.1589,-4.16,0,0,0,0,0,0,-4.1478,-4.1459,-4.1439,-4.1484,-4.1483,-4.1469,-4.1495,-4.147,-4.1478,-4.1472,-4.1441,-4.144,-4.1478,-4.1473,-4.1444,-4.1515,-4.1474,-4.148,-4.1516,-4.1528,-4.1538,-4.1538,-4.1392,0,0,0,0,0,-4.1497,-4.1515,-4.1498,-4.1539,-4.154,-4.1518,-4.1526,-4.1506,-4.1505,-4.1505,-4.1495,-4.1495,-4.1509,-4.1518,-4.153,-4.158,-4.1576,-4.1604,-4.1614,-4.1622,-4.1628,-4.1652,-4.1664,-4.1538,-4.1538,-4.1538,0,0,-4.1537,-4.1529,-4.1542,-4.1551,-4.1549,-4.1568,-4.1518,-4.1541,-4.1554,-4.1508,-4.1539,-4.1532,-4.153,-4.1572,-4.1589,-4.1569,-4.1662,-4.1629,-4.1635,-4.1637,-4.1659,-4.1671,-4.1681,-4.1542,-4.1541,-4.154,0,0,-4.1619,-4.1615,-4.1648,-4.1647,-4.1643,-4.1628,-4.1636,-4.1625,-4.1619,-4.1649,-4.1614,-4.1631,-4.1655,-4.1654,-4.1658,-4.1738,-4.1711,-4.1743,-4.1794,-4.1818,-4.1828,-4.1836,-4.1864,-4.1874,-4.1749,-4.1749,-4.1749,0,-4.1669,-4.1696,-4.1669,-4.1693,-4.1698,-4.1656,-4.1689,-4.1689,-4.169,-4.1693,-4.167,-4.1699,-4.1695,-4.1735,-4.1755,-4.1759,-4.1766,-4.1744,-4.1829,-4.1837,-4.1845,-4.187,-4.1881,-4.1753,-4.1753,-4.1752,-4.1752,0,-4.1757,-4.1777,-4.1804,-4.1805,-4.1812,-4.1841,-4.1817,-4.1828,-4.1808,-4.1796,-4.1827,-4.182,-4.1829,-4.1837,-4.1818,-4.1875,-4.1861,-4.1834,-4.1792,-4.1861,-4.1885,-4.1894,-4.1759,-4.1757,-4.1756,-4.1755,0,0,-4.188,-4.1864,-4.1874,-4.1873,-4.1866,-4.188,-4.1907,-4.1915,-4.1925,-4.1927,-4.1948,-4.1969,-4.1943,-4.1946,-4.1927,-4.1948,-4.2011,-4.1918,-4.1917,-4.1934,-4.2071,-4.2091,-4.2103,-4.1993,-4.1995,-4.1997,-4.2071,0,-4.1958,-4.2001,-4.1977,-4.2024,-4.2041,-4.2001,-4.2024,-4.2022,-4.201,-4.2023,-4.201,-4.2026,-4.1991,-4.1992,-4.2012,-4.1999,-4.2038,-4.1994,-4.2012,-4.2013,-4.2012,-4.2116,-4.2137,-4.2208,-4.208,-4.2082,-4.2083,0,-4.2055,-4.206,-4.2108,-4.2096,-4.2102,-4.2123,-4.2128,-4.2141,-4.2137,-4.2128,-4.2131,-4.2106,-4.2131,-4.209,-4.2123,-4.2094,-4.2099,-4.2095,-4.2097,-4.2096,-4.2051,-4.2117,-4.223,-4.224,-4.2098,-4.2096,-4.2095,0,-4.2137,-4.2156,-4.2187,-4.2188,-4.2175,-4.2191,-4.2186,-4.218,-4.2186,-4.2191,-4.2194,-4.2202,-4.2206,-4.2212,-4.219,-4.2163,-4.2226,-4.2184,-4.2218,-4.2218,-4.2232,-4.2231,-4.2346,-4.2238,-4.2238,-4.2238,-4.2237,0,-4.2226,-4.2258,-4.2224,-4.2243,-4.2276,-4.2247,-4.2281,-4.2272,-4.2267,-4.2284,-4.2251,-4.2267,-4.2236,-4.225,-4.2232,-4.2262,-4.2264,-4.2256,-4.2251,-4.2259,-4.226,-4.2261,-4.2255,-4.224,-4.224,-4.2239,-4.2239,0,-4.2324,-4.2303,-4.2334,-4.2319,-4.2316,-4.2341,-4.2328,-4.2345,-4.2331,-4.2352,-4.2355,-4.2334,-4.2347,-4.2325,-4.2337,-4.2325,-4.2365,-4.2353,-4.2366,-4.2362,-4.2397,-4.2394,-4.2516,-4.253,-4.2415,-4.2416,-4.2417,0,-4.2382,-4.2405,-4.2391,-4.24,-4.2397,-4.2411,-4.2416,-4.2389,-4.2396,-4.2393,-4.241,-4.242,-4.2427,-4.2451,-4.2436,-4.2444,-4.2431,-4.2474,-4.2433,-4.2439,-4.243,-4.2429,-4.243,-4.2482,-4.2483,-4.2485,-4.2485,0,-4.2486,-4.2474,-4.2483,-4.2489,-4.2496,-4.2499,-4.25,-4.2508,-4.2479,-4.2489,-4.2502,-4.2507,-4.2518,-4.2529,-4.2533,-4.2528,-4.2502,-4.2499,-4.2507,-4.2514,-4.252,-4.2516,-4.2388,-4.2496,-4.2495,-4.2494,-4.2493,-4.2493,-4.2565,-4.2582,-4.2575,-4.2586,-4.2583,-4.2584,-4.2599,-4.2586,-4.2596,-4.2602,-4.2586,-4.2602,-4.2597,-4.26,-4.2598,-4.2611,-4.2592,-4.2605,-4.2607,-4.261,-4.2615,-4.2519,-4.2612,-4.2612,-4.2611,-4.2611,-4.2611,0,-4.2666,-4.2659,-4.2669,-4.2671,-4.2679,-4.2653,-4.2652,-4.2661,-4.2676,-4.2673,-4.268,-4.2694,-4.2704,-4.269,-4.2697,-4.271,-4.2698,-4.2713,-4.2711,-4.271,-4.2632,-4.2624,-4.2722,-4.2722,-4.2722,-4.2722,-4.2722,-4.2722,-4.272,-4.2747,-4.2734,-4.276,-4.2753,-4.2769,-4.277,-4.2771,-4.2768,-4.2785,-4.2793,-4.2783,-4.2776,-4.2782,-4.279,-4.2786,-4.2789,-4.2808,-4.2799,-4.2727,-4.2716,-4.2705,-4.2697,-4.281,-4.281,-4.2876,-4.2877,-4.2877]}]]